Weather History for Fort Worth Alliance, TX

Change the Weather History Date:

Saturday, September 7, 2013

  Actual Average Record
Temperature  
Mean Temperature 90 °F -  
Max Temperature 100 °F 89 °F 104 °F (2012)
Min Temperature 80 °F 66 °F 53 °F (2011)
Cooling Degree Days 24    
Growing Degree Days 40 (Base 50)    
Moisture  
Dew Point 63 °F    
Average Humidity 45    
Maximum Humidity 67    
Minimum Humidity 24    
Precipitation  
Precipitation 0.00 in - - ()
Sea Level Pressure  
Sea Level Pressure 29.92 in    
Wind  
Wind Speed 5 mph (SSE)    
Max Wind Speed 10 mph    
Max Gust Speed 18 mph    
Visibility 10 miles    
Events      
Averages and records for this station are not official NWS values.
T = Trace of Precipitation, MM = Missing Value Source: NWS Daily Summary

Daily Weather History Graph

Daily Weather History Graph

Search for Another Location

Airport:

Trip Planner

Search our weather history database for the weather conditions in past years. The results will help you decide how hot, cold, wet, or windy it might be!

Date:

Astronomy

Sep. 07, 2013 Rise Set
Actual Time 7:07 AM CDT 7:45 PM CDT
Civil Twilight 6:42 AM CDT 8:10 PM CDT
Nautical Twilight 6:13 AM CDT 8:40 PM CDT
Astronomical Twilight 5:43 AM CDT 9:10 PM CDT
Moon 9:13 AM CDT (9/7) 8:56 PM CDT (9/7)
Length of Visible Light 13h 27m
Length of Day
12h 38m
Waxing Crescent, 5% of the Moon is Illuminated
Sep 7
Waxing Crescent
Sep 12
First Quarter
Sep 19
Full
Sep 26
Last Quarter
Oct 4
New

Hourly Weather History & Observations

Time (CDT) Temp. Heat Index Dew Point Humidity Pressure Visibility Wind Dir Wind Speed Gust Speed Precip Events Conditions
12:53 AM 84.9 °F 85.4 °F 62.1 °F 46% 29.91 in 10.0 mi SSE 5.8 mph - N/A   Mostly Cloudy
1:53 AM 84.0 °F 84.5 °F 62.1 °F 47% 29.92 in 10.0 mi South 5.8 mph - N/A   Partly Cloudy
2:53 AM 82.9 °F 84.6 °F 64.9 °F 54% 29.91 in 10.0 mi SSW 6.9 mph - N/A   Clear
3:53 AM 82.0 °F 84.1 °F 66.0 °F 58% 29.92 in 10.0 mi South 3.5 mph - N/A   Mostly Cloudy
4:53 AM 80.1 °F 82.1 °F 66.0 °F 62% 29.93 in 10.0 mi Calm Calm - N/A   Overcast
5:53 AM 80.1 °F 82.7 °F 68.0 °F 67% 29.94 in 10.0 mi SSW 3.5 mph - N/A   Mostly Cloudy
6:53 AM 81.0 °F 83.8 °F 68.0 °F 65% 29.95 in 10.0 mi Variable 3.5 mph - N/A   Mostly Cloudy
7:53 AM 80.1 °F 82.7 °F 68.0 °F 67% 29.96 in 10.0 mi SSE 5.8 mph - N/A   Scattered Clouds
8:53 AM 84.9 °F 87.6 °F 66.9 °F 55% 29.98 in 10.0 mi Variable 4.6 mph - N/A   Scattered Clouds
9:53 AM 88.0 °F 90.7 °F 66.9 °F 49% 29.98 in 10.0 mi South 5.8 mph - N/A   Scattered Clouds
10:53 AM 93.0 °F 95.0 °F 64.9 °F 39% 29.99 in 10.0 mi Variable 3.5 mph - N/A   Scattered Clouds
11:53 AM 95.0 °F 97.0 °F 64.0 °F 36% 29.99 in 10.0 mi SSW 5.8 mph - N/A   Partly Cloudy
12:53 PM 97.0 °F 98.3 °F 63.0 °F 32% 29.96 in 10.0 mi Variable 6.9 mph - N/A   Partly Cloudy
1:53 PM 93.9 °F 94.8 °F 62.1 °F 35% 29.94 in 10.0 mi Calm Calm - N/A   Scattered Clouds
2:53 PM 99.0 °F 99.5 °F 60.1 °F 28% 29.91 in 10.0 mi Variable 5.8 mph - N/A   Scattered Clouds
3:53 PM 98.1 °F 97.2 °F 57.9 °F 26% 29.88 in 10.0 mi ESE 5.8 mph - N/A   Partly Cloudy
4:53 PM 97.0 °F 95.3 °F 55.9 °F 25% 29.87 in 10.0 mi SE 4.6 mph - N/A   Partly Cloudy
5:53 PM 98.1 °F 96.4 °F 55.9 °F 24% 29.86 in 10.0 mi ESE 8.1 mph - N/A   Partly Cloudy
6:53 PM 95.0 °F 93.4 °F 55.9 °F 27% 29.87 in 10.0 mi ESE 9.2 mph - N/A   Partly Cloudy
7:53 PM 91.9 °F 90.8 °F 57.9 °F 32% 29.87 in 10.0 mi SE 8.1 mph - N/A   Partly Cloudy
8:53 PM 88.0 °F 86.9 °F 57.9 °F 36% 29.88 in 10.0 mi SSE 5.8 mph - N/A   Clear
9:53 PM 84.0 °F 85.8 °F 64.9 °F 53% 29.91 in 10.0 mi South 10.4 mph 18.4 mph N/A   Clear
10:53 PM 81.0 °F 82.7 °F 64.9 °F 58% 29.91 in 10.0 mi South 6.9 mph - N/A   Clear
11:53 PM 80.1 °F 81.9 °F 64.9 °F 60% 29.92 in 10.0 mi South 4.6 mph - N/A   Clear